Location: Appleton
(44.2618°N, 88.4157°W)
Time: 10:43:52
(UTC+00:00)

Courier 1B - All Passes

Search period start: 01 March 2021 00:00
Search period end: 11 March 2021 00:00
Orbit: 962 x 1209 km, 28.3° (Epoch: 28 February)

Date Brightness Start Highest point End Pass type
(mag) Time Alt. Az. Time Alt. Az. Time Alt. Az.
01 Mar - 14:06:08 10° S 14:08:31 12° SSE 14:10:55 10° SE daylight
01 Mar - 15:56:51 10° SW 16:01:20 19° S 16:05:55 10° SE daylight
01 Mar - 17:49:57 10° SW 17:54:17 18° S 17:58:45 10° SSE daylight
02 Mar - 15:03:40 10° SSW 15:07:51 18° S 15:12:06 10° SE daylight
02 Mar - 16:56:20 10° SW 17:00:46 19° S 17:05:20 10° SE daylight
02 Mar - 18:51:24 10° SW 18:53:40 12° SSW 18:55:59 10° S daylight
03 Mar - 14:10:39 10° SSW 14:14:24 16° SSE 14:18:10 10° SE daylight
03 Mar - 16:02:49 10° SW 16:07:17 19° S 16:11:50 10° SE daylight
03 Mar - 17:56:58 10° SW 18:00:11 14° SSW 18:03:28 10° SSE daylight
04 Mar - 13:17:52 10° SSW 13:20:57 14° SSE 13:24:04 10° SE daylight
04 Mar - 15:09:25 10° SW 15:13:48 19° S 15:18:16 10° SE daylight
04 Mar - 17:02:59 10° SW 17:06:42 16° SSW 17:10:31 10° SSE daylight
05 Mar - 12:25:33 10° S 12:27:32 11° SSE 12:29:30 10° SE daylight
05 Mar - 14:16:04 10° SW 14:20:20 18° S 14:24:37 10° SE daylight
05 Mar - 16:09:11 10° SW 16:13:14 17° S 16:17:21 10° SSE daylight
06 Mar - 13:22:51 10° SSW 13:26:53 17° S 13:30:54 10° SE daylight
06 Mar - 15:15:32 10° SW 15:19:46 18° S 15:24:02 10° SE daylight
06 Mar - 17:10:44 10° SW 17:12:36 11° SSW 17:14:28 10° S daylight
07 Mar - 12:29:45 10° SSW 12:33:25 16° SSE 12:37:04 10° SE daylight
07 Mar - 14:21:58 10° SW 14:26:18 19° S 14:30:39 10° SE daylight
07 Mar - 16:16:11 10° SW 16:19:09 13° SSW 16:22:08 10° SSE daylight
08 Mar - 11:36:53 10° SSW 11:39:58 14° SSE 11:43:02 10° SE visible
08 Mar - 13:28:28 10° SW 13:32:50 19° S 13:37:10 10° SE daylight
08 Mar - 15:22:07 10° SW 15:25:42 15° SSW 15:29:19 10° SSE daylight
09 Mar - 10:44:27 10° S 10:46:32 11° SSE 10:48:34 10° SE visible
09 Mar - 12:35:02 10° SW 12:39:22 18° S 12:43:37 10° SE daylight
09 Mar - 14:28:15 10° SW 14:32:15 17° S 14:36:15 10° SSE daylight
10 Mar - 11:41:43 10° SSW 11:45:54 17° S 11:49:59 10° SE visible
10 Mar - 13:34:30 10° SW 13:38:48 18° S 13:43:03 10° SE daylight
10 Mar - 15:29:46 10° SW 15:31:35 11° SSW 15:33:25 10° S daylight
